Location: Camp at the Woods
(43.2055°N, 93.0905°W)
Time: 09:03:48
(UTC+00:00)

SL-8 R/B - Pass Details

Date: 05 December 2023
Orbit: 653 x 663 km, 48.4° (Epoch: 29 February)

Event Time Altitude Azimuth Distance (km) Brightness Sun altitude
Rises 23:21:25 0° 294° (WNW) 2,979 7.8 -8.0°
Reaches altitude 10° 23:23:46 10° 296° (WNW) 2,068 6.9 -8.4°
Maximum altitude 23:28:33 77° 23° (NNE) 678 3.7 -9.2°
Drops below altitude 10° 23:33:20 10° 110° (ESE) 2,069 5.8 -10.0°
Enters shadow 23:34:23 - 111° (ESE) 2,476 6.2 -10.2°
